Theta_e
328 328 327 327 326 326 327 326 325 324 324 323 323 322 323 323 323 322 320 319 320 320 320 321 321 321 320 312 312 320 330 328 322 320 317 314 311 309 305 306 308 306 308 310 310 309 307
326 326 326 326 326 326 327 326 325 324 323 323 322 322 322 322 322 321 321 319 319 319 319 320 321 320 314 301 318 321 321 320 318 316 314 314 311 312 308 307 305 309 309 308 309 308 308
326 325 325 324 324 325 325 324 324 323 323 323 322 322 321 322 321 321 320 319 318 318 319 321 321 320 312 308 315 319 322 317 316 316 313 316 315 310 309 306 311 309 304 306 307 307 306
325 325 324 323 323 323 323 322 323 323 323 323 323 321 321 320 319 319 319 318 318 319 320 321 320 317 309 318 314 315 314 316 318 316 316 316 316 311 309 310 308 304 302 297 306 308 307
325 324 324 322 321 321 321 321 322 323 323 323 322 321 321 319 318 318 317 317 318 319 320 319 316 317 309 320 314 315 312 312 315 316 315 319 314 307 307 301 297 299 294 299 302 307 306
325 324 323 322 321 321 321 321 321 322 322 322 322 322 321 320 318 317 315 317 320 319 318 320 320 307 311 308 316 318 316 316 313 312 312 310 306 301 301 298 292 295 297 295 296 303 306
325 324 323 322 322 321 322 321 320 320 321 323 323 322 321 320 318 316 317 319 311 311 312 306 308 309 312 314 316 314 316 316 314 309 301 307 299 296 300 302 301 299 297 296 299 304 302
323 323 323 323 322 322 322 322 320 319 320 320 321 320 319 319 317 316 316 315 317 316 307 315 313 311 316 314 308 312 316 308 308 303 305 302 297 304 307 305 302 299 296 296 300 305 302
319 321 322 323 323 323 323 322 319 319 319 319 318 317 317 316 314 319 320 319 323 324 307 311 312 308 308 311 308 309 313 308 303 300 302 298 302 307 305 302 301 299 296 295 295 300 301
318 318 320 322 322 322 321 320 319 318 316 316 316 315 315 314 316 322 317 324 324 324 301 302 309 309 313 314 308 315 315 311 305 300 302 301 306 304 301 300 301 294 302 300 300 297 292
317 317 317 318 319 318 317 317 317 316 315 315 315 314 314 316 316 318 321 324 323 318 285 305 308 317 315 309 309 308 312 308 302 304 303 300 302 301 300 302 303 298 303 301 300 296 294
317 316 316 317 316 316 316 316 315 315 315 315 314 314 314 317 319 321 324 322 319 297 287 302 308 306 306 307 307 308 308 309 308 303 303 302 307 304 301 305 304 304 301 300 299 296 289
316 316 316 315 315 315 316 316 315 315 315 315 313 313 314 321 313 322 324 313 295 289 304 300 303 305 304 303 303 304 303 299 296 293 293 298 300 303 305 300 303 301 295 288 288 287 288
315 315 315 314 313 313 314 314 314 314 314 313 311 311 314 320 322 321 316 303 290 299 300 306 305 304 301 304 302 303 300 297 301 300 295 292 292 301 306 302 301 302 297 290 285 286 289
315 314 313 313 313 313 313 313 313 313 312 311 310 308 313 315 323 319 305 293 294 298 304 302 303 300 300 303 302 301 299 299 303 302 295 295 297 305 307 307 305 300 296 303 296 295 289
315 314 313 312 312 313 312 312 312 312 311 310 305 309 309 320 322 313 301 295 298 303 305 305 297 302 297 300 300 298 299 305 305 307 305 300 294 305 305 306 304 302 305 294 293 284 283
314 313 312 312 311 311 311 312 311 311 311 310 304 304 312 323 318 305 296 297 301 306 306 303 300 299 300 299 300 298 301 306 308 307 307 304 297 298 304 301 299 300 298 299 297 293 282
313 312 312 311 311 311 311 311 311 310 310 306 303 295 317 320 300 303 298 301 303 303 306 305 304 301 300 301 300 300 302 305 309 308 303 306 300 293 297 305 307 304 300 300 286 288 289
312 312 311 311 311 310 310 311 310 309 309 301 297 299 314 313 294 297 300 301 304 302 302 303 300 302 303 300 297 300 304 309 309 307 303 306 296 288 292 299 303 300 302 301 298 294 288
311 311 311 310 310 310 310 310 309 309 309 302 297 291 298 305 302 300 297 297 298 305 302 303 302 303 300 298 302 299 303 308 309 307 305 304 297 295 287 293 298 296 300 301 297 283 287
310 310 310 309 309 310 310 309 309 309 308 301 297 292 299 289 293 296 297 298 296 296 302 304 300 300 299 295 299 299 303 305 307 306 306 303 293 296 297 298 299 297 297 297 293 294 287
310 309 309 309 309 309 309 309 309 308 308 298 296 293 297 294 296 295 295 294 296 298 299 297 298 301 302 298 298 297 301 301 299 302 300 301 290 295 286 297 297 294 296 296 295 295 294
310 309 309 309 309 309 309 309 308 308 307 297 302 303 299 293 293 292 293 295 296 299 300 303 301 299 299 300 302 303 304 304 303 300 297 296 292 288 285 294 293 286 292 294 296 297 296
309 309 309 309 309 309 309 308 307 308 307 301 301 300 295 285 292 293 297 297 297 298 297 301 302 299 303 309 307 305 303 304 303 301 302 295 293 288 284 290 277 292 300 299 296 297 297
308 308 308 309 308 308 308 307 307 307 308 301 303 299 294 287 293 294 297 296 297 300 300 302 303 305 306 303 295 290 294 296 298 300 300 298 291 283 281 281 290 294 297 296 294 293 299
307 307 307 307 307 307 307 307 307 307 308 302 302 303 298 290 289 297 296 296 291 291 293 300 308 306 304 298 291 287 284 290 288 292 299 296 294 287 286 283 280 291 298 302 299 286 299
306 307 307 307 306 306 306 306 306 307 307 303 301 305 299 291 295 297 294 295 298 294 291 296 300 298 305 292 289 284 283 293 285 289 289 287 287 288 284 280 287 298 300 302 285 287 298
306 306 306 306 306 306 305 305 305 306 307 303 300 304 298 292 294 298 300 296 296 296 290 294 294 293 289 286 285 283 285 290 290 295 292 289 284 285 287 285 283 301 298 291 295 299 300
304 305 305 305 305 305 305 305 305 305 306 304 296 305 305 297 291 298 300 302 301 299 296 296 295 297 296 288 288 289 285 290 289 282 296 286 290 285 288 287 297 301 301 303 302 300 299
Wind_Speed
16 14 12 12 12 11 9 8 7 6 5 4 5 6 7 9 10 11 12 13 14 16 15 17 18 18 9 6 3 4 5 6 3 2 5 7 7 5 5 6 9 5 5 8 8 6 3
15 15 14 13 12 11 10 9 8 7 5 5 5 6 6 8 10 10 12 14 13 15 15 16 14 17 4 3 4 10 8 6 6 5 6 6 4 6 5 6 5 8 7 8 9 11 6
19 16 14 13 12 12 11 10 9 7 6 5 5 5 6 7 8 11 13 14 15 14 14 15 10 4 4 12 3 7 8 4 4 5 4 6 7 6 8 8 6 9 9 9 11 10 8
19 18 16 13 13 11 10 10 8 8 7 5 4 5 6 7 10 12 14 15 17 16 14 12 4 2 7 5 2 7 4 5 5 3 5 6 5 4 3 6 7 5 5 5 9 14 6
20 20 18 15 15 13 12 10 9 9 8 7 5 4 6 7 10 13 16 18 21 16 10 6 2 3 9 4 2 6 6 5 5 6 5 7 2 4 6 3 6 1 4 9 5 7 6
23 20 17 18 15 13 11 10 9 10 8 7 5 5 6 7 10 13 17 18 13 7 4 5 5 4 6 4 2 3 4 6 3 5 4 4 2 1 5 2 5 6 6 6 6 7 3
23 23 20 18 16 13 13 12 11 9 7 8 6 6 6 8 10 9 10 7 6 4 2 6 4 6 11 5 5 4 6 5 5 4 5 8 3 6 12 6 1 5 6 7 8 10 7
20 22 23 21 16 15 14 13 11 10 8 6 4 6 4 9 10 11 3 3 6 2 9 12 17 17 15 8 8 6 7 4 4 6 8 4 8 13 12 3 4 5 5 8 6 9 8
11 18 22 21 21 18 16 14 12 10 9 10 6 3 6 9 11 5 3 4 5 8 4 10 13 7 9 12 14 14 5 7 8 8 8 8 10 9 4 4 2 3 5 6 8 10 6
16 13 15 22 21 20 17 15 13 12 11 10 7 2 6 11 2 4 1 7 7 3 3 8 6 5 7 6 5 6 10 5 5 12 10 9 7 7 4 3 5 3 9 7 7 6 4
18 18 16 16 19 20 19 17 15 15 14 11 7 1 5 6 4 2 4 7 8 4 4 3 3 4 5 6 6 1 3 4 4 7 5 8 6 8 7 3 5 7 6 5 4 7 5
21 19 18 17 18 15 17 17 15 12 10 8 4 1 3 1 1 2 6 7 2 3 7 4 4 5 4 6 4 3 2 3 4 6 9 14 8 5 4 1 3 5 5 8 7 2 4
25 22 19 18 16 16 16 16 14 12 11 8 6 4 1 2 3 4 5 4 2 3 8 2 2 5 7 5 5 4 6 4 3 2 3 5 10 7 5 1 3 4 2 4 4 2 4
25 22 20 19 17 16 16 16 15 13 11 11 7 4 5 2 2 2 4 4 5 6 10 5 8 7 7 6 7 7 4 5 8 6 4 3 4 2 2 3 1 5 7 4 2 2 3
25 23 21 20 18 17 16 16 16 16 15 12 10 2 2 3 2 1 5 5 5 4 5 9 9 4 5 7 3 6 8 5 4 6 2 4 4 5 6 3 2 4 4 5 2 3 4
27 25 24 22 20 18 17 16 17 17 16 14 4 4 4 8 6 3 3 3 4 5 6 4 3 2 4 8 2 2 6 5 4 3 1 4 2 2 3 1 4 2 1 5 4 2 2
28 26 25 24 22 20 19 17 17 17 17 14 2 4 5 12 5 2 4 5 7 14 9 4 4 4 4 5 4 8 4 6 7 7 7 5 3 1 4 2 3 4 2 3 2 5 5
28 27 26 25 24 22 21 20 19 18 14 9 3 4 8 10 5 3 5 8 8 7 10 7 2 4 4 5 5 7 3 3 4 6 5 6 2 1 2 3 7 4 3 4 6 1 2
30 29 28 27 26 24 23 22 20 18 17 5 4 4 2 3 9 6 5 7 8 6 7 7 4 4 3 1 1 7 6 3 5 4 3 5 3 3 7 5 6 4 4 4 4 4 4
30 28 29 28 26 26 25 23 21 23 23 1 4 4 0 2 3 10 7 8 8 9 5 7 4 5 1 2 3 3 3 2 6 4 1 2 3 3 6 4 4 2 5 4 2 4 4
31 30 30 29 27 25 24 23 22 21 13 1 1 5 6 6 5 7 6 7 12 8 7 9 5 7 8 5 3 4 3 5 7 4 4 1 2 3 3 5 3 5 9 6 4 7 6
32 30 30 28 28 27 27 28 25 19 15 1 2 3 2 5 10 13 11 8 12 16 10 7 7 10 13 7 8 9 4 2 7 3 2 1 3 4 5 5 5 11 13 11 12 14 11
32 33 32 29 29 28 26 24 19 16 9 3 3 4 3 6 8 10 13 13 13 10 8 8 10 5 3 5 1 7 7 1 3 6 6 3 3 3 4 4 7 8 8 12 10 10 7
31 32 32 31 29 29 26 24 20 22 12 2 2 2 2 2 5 9 9 16 14 13 16 12 8 9 6 7 6 6 2 4 5 5 3 4 3 3 4 3 3 9 7 8 4 2 5
32 32 32 32 30 28 25 23 19 20 18 2 3 1 1 1 3 8 10 9 14 11 12 7 4 1 6 6 5 4 1 3 6 7 6 6 5 1 3 3 8 13 8 4 5 3 5
26 28 29 30 29 26 24 21 18 17 15 2 2 2 2 2 4 5 6 9 6 4 2 7 5 4 7 4 4 4 6 5 6 3 2 6 5 7 2 3 7 8 3 6 4 1 4
22 26 24 25 25 25 23 21 19 17 14 4 1 2 1 1 4 7 5 4 3 4 4 5 6 2 5 4 4 5 5 3 5 8 5 3 3 8 4 4 8 12 4 5 5 7 6
23 26 25 24 23 23 21 19 18 16 15 6 2 3 4 1 4 8 6 7 6 5 1 5 6 5 3 3 4 4 4 6 5 6 9 8 7 4 3 3 12 10 5 9 7 5 7
19 19 20 21 21 21 20 19 18 16 15 7 2 3 4 3 2 3 6 7 6 1 2 5 6 5 6 4 2 3 2 2 5 3 5 5 8 8 10 9 7 5 4 4 7 7 5
Wind_Direction
206 197 208 204 194 201 207 218 229 242 262 284 309 321 330 330 332 329 323 322 323 321 327 324 330 329 354 345 248 167 186 232 236 242 240 310 325 314 332 326 329 330 307 300 334 328 278
206 201 200 208 198 198 198 211 222 233 241 266 290 309 318 327 325 321 316 314 313 313 316 317 329 321 332 307 136 159 188 197 244 228 286 312 310 324 296 309 326 308 299 312 308 289 271
199 207 197 208 204 194 194 204 215 222 237 256 286 303 315 319 317 313 309 306 304 302 305 304 318 308 280 244 326 179 189 231 265 313 335 334 357 24 337 322 310 308 321 300 271 262 247
198 200 199 198 206 193 196 200 203 221 229 238 259 293 309 314 313 308 304 302 299 298 298 294 311 290 247 293 349 316 235 231 263 288 299 290 10 327 257 270 307 295 289 277 271 235 195
200 194 192 195 204 182 194 199 194 209 218 221 233 262 288 304 305 304 302 302 291 291 268 274 279 205 266 287 229 237 209 264 268 219 251 268 334 236 303 277 310 277 252 296 301 168 132
199 193 191 192 194 178 194 191 198 200 210 224 226 255 282 294 298 307 309 290 282 345 227 213 264 341 275 243 112 345 218 214 300 293 269 223 243 235 313 77 263 337 356 338 336 349 0
196 190 188 193 186 182 182 194 200 199 198 232 222 238 270 290 299 323 340 347 2 5 330 247 264 251 299 301 136 212 249 189 214 284 268 264 145 239 248 238 0 358 350 326 311 310 350
202 199 192 193 189 187 191 187 188 195 176 222 241 233 280 294 309 313 244 349 54 297 298 276 268 268 266 280 275 268 305 229 209 229 259 297 260 240 244 342 345 339 324 305 302 319 359
178 194 191 189 188 187 184 180 180 177 170 197 189 39 333 315 313 311 304 36 29 12 268 273 235 218 228 225 243 251 251 234 216 254 246 228 247 290 216 234 272 304 293 290 286 297 298
174 169 178 190 183 180 169 167 166 167 174 171 146 132 326 307 309 323 38 2 352 49 319 265 196 239 167 68 298 240 228 224 238 226 254 250 252 281 319 337 343 280 266 282 301 320 254
176 169 162 155 167 161 154 159 161 165 164 157 154 224 317 27 302 17 356 352 322 60 337 56 62 327 135 158 322 75 42 28 234 270 242 253 287 292 294 222 269 259 322 324 310 312 5
180 172 168 163 158 157 155 157 158 160 160 167 162 181 337 346 319 334 325 309 29 43 252 236 131 184 158 190 273 147 143 54 286 261 253 264 264 237 241 293 42 325 335 314 287 224 273
189 178 173 169 172 166 166 165 165 166 176 170 172 175 109 306 200 330 315 24 48 211 272 175 158 165 192 206 214 210 171 189 210 152 257 287 249 256 230 182 298 246 296 325 328 33 207
184 178 178 174 176 181 179 177 171 167 168 160 157 156 221 260 110 17 50 38 198 212 256 333 353 312 194 207 209 188 244 232 229 219 282 246 52 176 136 143 306 313 171 160 296 320 296
180 177 174 174 173 174 175 174 165 162 157 154 131 190 243 207 137 59 97 206 209 240 339 358 322 330 312 249 135 161 201 252 46 44 18 20 33 61 46 54 111 307 45 198 208 323 61
181 179 175 171 171 170 170 166 163 159 154 153 149 160 204 159 144 75 109 200 239 270 309 6 300 118 312 336 182 235 199 14 69 70 73 293 32 197 121 330 292 79 2 27 358 83 356
183 177 175 170 167 169 166 165 164 160 164 170 112 169 196 140 104 141 202 185 209 241 251 226 295 14 275 328 225 264 39 44 7 344 356 17 95 275 102 77 355 36 28 36 71 125 153
180 178 175 170 168 165 166 166 167 171 149 131 186 186 158 140 157 196 189 192 204 215 226 264 293 272 255 0 312 15 97 89 338 340 344 342 110 91 338 73 45 354 337 152 116 246 135
177 175 175 170 168 164 167 168 170 153 167 146 178 126 222 136 190 197 207 234 196 187 201 195 225 223 339 34 312 4 55 286 297 66 46 334 337 37 350 360 24 34 311 19 120 78 176
175 174 174 170 167 165 168 168 165 174 192 96 141 123 233 179 289 198 194 212 221 191 232 160 202 246 113 2 356 329 119 43 354 72 220 25 315 180 182 228 174 268 266 258 135 115 218
172 174 172 167 166 167 167 167 175 187 175 133 275 183 174 193 213 233 229 214 223 204 198 165 228 207 192 194 203 276 236 261 356 318 337 131 242 310 333 73 307 286 275 291 272 242 195
171 172 169 168 168 168 169 171 183 163 141 219 212 128 131 162 179 210 222 232 205 212 174 208 219 201 219 188 181 186 275 117 219 262 308 348 248 358 311 305 285 275 260 243 247 252 252
173 173 170 168 170 169 171 175 178 151 160 172 223 295 124 186 172 187 216 231 222 186 229 204 201 210 271 303 239 151 150 259 250 181 196 140 118 72 272 0 352 305 230 227 239 245 207
171 172 169 166 170 169 172 176 163 164 187 147 247 97 80 255 168 206 209 222 234 215 200 204 199 198 199 104 47 70 103 267 271 249 157 160 132 101 226 23 262 240 294 270 242 314 114
171 171 166 164 167 165 169 173 164 168 194 138 344 56 108 201 192 234 223 207 238 255 214 191 181 142 93 74 72 33 22 300 248 230 237 181 131 101 150 227 294 307 292 266 178 32 89
161 164 164 161 161 162 166 168 160 170 187 154 341 18 39 99 271 308 284 206 204 205 239 142 93 92 79 101 106 159 199 178 217 174 224 79 135 134 138 207 229 240 42 53 70 166 113
162 151 151 155 159 160 163 161 159 169 161 139 244 112 76 93 337 15 13 319 326 178 173 114 125 104 128 110 180 162 213 231 223 149 172 94 33 181 177 215 278 276 39 341 122 226 138
149 155 156 156 158 158 158 158 159 161 156 136 165 97 97 24 19 21 15 22 347 21 161 215 72 340 67 148 138 208 181 226 213 194 161 157 155 176 155 205 255 238 290 193 200 150 142
151 148 152 150 154 155 157 154 158 157 154 146 131 107 89 49 265 288 309 14 41 43 264 323 164 158 175 131 190 190 205 222 184 226 160 176 176 179 177 206 233 271 173 133 158 148 141